Lewistown, MT

8:33 PM MDT on May 27, 2018 (GMT -0600)
Lewistown Municipal

Weather History for KLWT - November, 2013

Change the Weather History Date:

Friday, November 8, 2013

  Actual Average Record
Temperature  
Mean Temperature 39 °F 35 °F  
Max Temperature 46 °F 47 °F 73 °F (2004)
Min Temperature 31 °F 24 °F -9 °F (1966)
Degree Days  
Heating Degree Days 26 30  
Month to date heating degree days 253 227  
Since 1 July heating degree days 1255 1365  
Cooling Degree Days 0 0  
Month to date cooling degree days 0 0  
Year to date cooling degree days 277 210  
Moisture  
Dew Point 26 °F    
Average Humidity 64    
Maximum Humidity 85    
Minimum Humidity 42    
Precipitation  
Precipitation 0.14 in 0.02 in 0.59 in (2010)
Month to date precipitation 0.19 0.19  
Year to date precipitation 21.67 15.67  
Snow  
Snow 0.00 in - - ()
Snow Depth 0.00 in    
Sea Level Pressure  
Sea Level Pressure 29.83 in    
Wind  
Wind Speed 15 mph (West)    
Max Wind Speed 29 mph    
Max Gust Speed 38 mph    
Visibility 10 miles    
Events Rain    
T = Trace of Precipitation, MM = Missing Value Source: NWS Daily Summary

Daily Weather History Graph

Daily Weather History Graph

Search for Another Location

Airport or City:

Astronomy

Nov. 08, 2013 Rise Set
Actual Time 7:11 AM MST 4:51 PM MST
Civil Twilight 6:38 AM MST 5:23 PM MST
Nautical Twilight 6:02 AM MST 6:00 PM MST
Astronomical Twilight 5:26 AM MST 6:35 PM MST
Moon 12:09 PM MST (11/8) 10:17 PM MST (11/8)
Length of Visible Light 10h 44m
Length of Day
9h 39m
Waxing Crescent, 34% of the Moon is Illuminated
Nov 8
Waxing Crescent
Nov 9
First Quarter
Nov 17
Full
Nov 25
Last Quarter
Dec 2
New

Hourly Weather History & Observations

Time (MST) Temp. Windchill Dew Point Humidity Pressure Visibility Wind Dir Wind Speed Gust Speed Precip Events Conditions
12:54 AM 39.9 °F 31.8 °F 35.1 °F 83% 29.66 in 10.0 mi WSW 15.0 mph - 0.17 in Rain Light Rain
1:54 AM 39.0 °F 29.9 °F 30.0 °F 70% 29.64 in 10.0 mi WSW 17.3 mph - 0.00 in   Overcast
2:54 AM 37.9 °F 28.5 °F 27.0 °F 65% 29.68 in 10.0 mi WSW 17.3 mph - N/A   Scattered Clouds
3:54 AM 37.0 °F 27.4 °F 25.0 °F 62% 29.69 in 10.0 mi West 17.3 mph 24.2 mph N/A   Overcast
4:54 AM 36.0 °F 30.3 °F 27.0 °F 70% 29.70 in 10.0 mi West 6.9 mph - N/A   Overcast
5:54 AM 37.9 °F 28.2 °F 25.0 °F 60% 29.70 in 10.0 mi West 18.4 mph - N/A   Overcast
6:54 AM 36.0 °F 29.0 °F 24.1 °F 62% 29.73 in 10.0 mi WNW 9.2 mph - N/A   Mostly Cloudy
7:54 AM 33.1 °F 28.7 °F 25.0 °F 72% 29.76 in 10.0 mi West 4.6 mph - N/A   Clear
8:54 AM 39.9 °F 35.1 °F 26.1 °F 58% 29.77 in 10.0 mi West 6.9 mph - N/A   Mostly Cloudy
9:54 AM 43.0 °F 34.8 °F 26.1 °F 51% 29.77 in 10.0 mi West 18.4 mph 25.3 mph N/A   Clear
10:54 AM 44.1 °F 35.2 °F 26.1 °F 49% 29.79 in 10.0 mi West 23.0 mph 32.2 mph N/A   Clear
11:54 AM 44.1 °F 35.9 °F 27.0 °F 51% 29.81 in 10.0 mi West 19.6 mph 28.8 mph N/A   Partly Cloudy
12:54 PM 45.0 °F 36.0 °F 26.1 °F 48% 29.82 in 10.0 mi West 25.3 mph 32.2 mph N/A   Mostly Cloudy
1:54 PM 46.0 °F 38.3 °F 24.1 °F 42% 29.82 in 10.0 mi WNW 20.7 mph 28.8 mph N/A   Overcast
2:54 PM 45.0 °F 37.6 °F 25.0 °F 46% 29.85 in 10.0 mi West 17.3 mph 25.3 mph N/A   Overcast
3:54 PM 45.0 °F 36.0 °F 26.1 °F 48% 29.87 in 10.0 mi West 25.3 mph 38.0 mph N/A   Overcast
4:54 PM 41.0 °F 32.5 °F 26.1 °F 55% 29.90 in 10.0 mi West 17.3 mph - N/A   Overcast
5:54 PM 39.9 °F 30.5 °F 27.0 °F 60% 29.91 in 10.0 mi WSW 19.6 mph - N/A   Overcast
6:54 PM 39.0 °F 31.0 °F 27.0 °F 62% 29.94 in 10.0 mi SW 13.8 mph - N/A   Overcast
7:54 PM 36.0 °F 29.0 °F 25.0 °F 64% 29.98 in 10.0 mi SW 9.2 mph - N/A   Overcast
8:54 PM 37.0 °F 28.1 °F 23.0 °F 57% 29.98 in 10.0 mi WSW 15.0 mph - N/A   Overcast
9:54 PM 36.0 °F 29.0 °F 23.0 °F 59% 30.02 in 10.0 mi WNW 9.2 mph - N/A   Overcast
10:54 PM 34.0 °F 27.2 °F 25.0 °F 70% 30.04 in 10.0 mi WSW 8.1 mph - N/A   Overcast
11:54 PM 33.1 °F 26.1 °F 27.0 °F 78% 30.06 in 10.0 mi West 8.1 mph - N/A   Overcast